Starlink 11402

operational
NORAD ID: 61874 Int'l Des: 2024-204 Owner: SPXS Country: US Constellation: starlink
LEOCIRCULAR

About Starlink 11402

Description loading...

Live Position

Loading 3D Globe...

Upcoming Passes

Altitude History

Altitude vs Time

uPlot chart will show altitude changes over time

Two-Line Element Set

1 61874U 24204A 25258.11292867 -.00003155 00000-0 -21188-4 0 9996
2 61874 53.1597 142.1599 0001081 95.7157 264.3984 15.69719525 49923
Epoch: Sep 15, 2025 • Age: 10 hours

Current Status

Altitude 378.7 km
Velocity 7.68 km/s
Sub-Earth Point -52.56°S, 127.27°W
Launch Date Nov 9, 2024
Age 0.8 years
Type internet

Technical Details

Classification Payload
Mass 960.00 kg
Dry Mass 910.00 kg
Total Mass 960.00 kg
Length 0.30 m
Diameter 4.10 m
Span 29.00 m
Shape Box + pan
Manufacturer SPXS
Bus Type Starlink V2MD
Phase Status In Orbit
Owner/State SPXS/US

Large Constellations

Loading constellations...